This is the latest recevied weather packets stored in our database for station/object N8SDR. If no packets are shown the sender has not sent any weather packets the latest 10 day(s).
| Time | Temp. | Humidity | Pressure | Rain* | Wind** | Luminosity | Snow |
|---|---|---|---|---|---|---|---|
| 1778107392 | 14.44° C | 59% | 1010.2 hPa | 0 mm | - | 199 W/m² | - |
| 1778107089 | 14.44° C | 59% | 1010.2 hPa | 0 mm | - | 151 W/m² | - |
| 1778106784 | 14.44° C | 60% | 1010.3 hPa | 0 mm | - | 118 W/m² | - |
| 1778106481 | 14.44° C | 60% | 1010.2 hPa | 0 mm | - | 134 W/m² | - |
| 1778106176 | 14.44° C | 59% | 1010.3 hPa | 0 mm | - | 111 W/m² | - |
| 1778105875 | 14.44° C | 58% | 1010.3 hPa | 0 mm | - | 126 W/m² | - |
| 1778105572 | 14.44° C | 60% | 1010.2 hPa | 0 mm | - | 122 W/m² | - |
| 1778105270 | 14.44° C | 60% | 1010.2 hPa | 0 mm | - | 92 W/m² | - |
| 1778104964 | 14.44° C | 60% | 1010.3 hPa | 0 mm | - | 74 W/m² | - |
| 1778104662 | 14.44° C | 59% | 1010.4 hPa | 0 mm | - | 114 W/m² | - |
| 1778104357 | 14.44° C | 58% | 1010.6 hPa | 0 mm | - | 144 W/m² | - |
| 1778104054 | 14.44° C | 59% | 1010.3 hPa | 0 mm | - | 167 W/m² | - |
| 1778103751 | 14.44° C | 57% | 1010.2 hPa | 0 mm | - | 150 W/m² | - |
| 1778103449 | 14.44° C | 58% | 1010.1 hPa | 0 mm | - | 233 W/m² | - |
| 1778103146 | 14.44° C | 56% | 1010.3 hPa | 0 mm | - | 230 W/m² | - |
| 1778102843 | 14.44° C | 56% | 1010 hPa | 0 mm | - | 188 W/m² | - |
| 1778102539 | 14.44° C | 58% | 1010.2 hPa | 0 mm | - | 201 W/m² | - |
| 1778102234 | 15° C | 57% | 1010.1 hPa | 0 mm | - | 212 W/m² | - |
| 1778101930 | 15° C | 58% | 1010 hPa | 0 mm | - | 223 W/m² | - |
| 1778101628 | 14.44° C | 58% | 1010.1 hPa | 0 mm | - | 282 W/m² | - |
| 1778101324 | 14.44° C | 57% | 1010 hPa | 0 mm | - | 180 W/m² | - |
| 1778101022 | 14.44° C | 59% | 1009.8 hPa | 0 mm | - | 200 W/m² | - |
| 1778100716 | 14.44° C | 59% | 1009.9 hPa | 0 mm | - | 200 W/m² | - |
| 1778100414 | 14.44° C | 57% | 1009.9 hPa | 0 mm | - | 143 W/m² | - |
| 1778100111 | 14.44° C | 57% | 1009.9 hPa | 0 mm | - | 154 W/m² | - |
* Rain latest hour (hover to see other rain measurements)
** Current wind speed in m/s (hover to see current wind gust speed)